www.pogodaiklimat.ru

Погода и климат >> Архив погоды >> Россия >> Сахалинская область >> Погиби


ПОГОДА в Погибях

  • Прогноз погоды в Погибях
  • Монитор погоды в Погибях
  • Климат города

АРХИВ ПОГОДЫ в Погибях

Время (UTC), дата Ветер
(напр.,м/с)
 
Видим.   Явления Облачность Т
(С)
Тd
(С)
f
(%)
Тe
(С)
Тes
(С)
Комфортность P
(гПа)
Po
(гПа)
Тmin
(С)
Tmax
(С)
R
(мм)
R24
(мм)
S
(см)
03 16.07 ЮВ 2-4
{4}
50 км 9/3 600 м
[Cb cap Ac trans Ci sp]
+22.5 +8.4 40 +24 +30 комфорт 1007.4 1006.6
06 16.07 ЮВ 2-2
{4}
50 км 9/3 600 м
[Cb cap Ac trans Ci sp]
+22.4 +8.0 40 +24 +27 комфорт 1007.4 1006.6
09 16.07 ЮВ 2-2
{4}
50 км 9/6 600 м
[Cb cap Ac trans]
+20.0 +8.6 48 +22 +22 комфорт 1007.4 1006.6 +22.9
12 16.07 ЮВ 2-2
{2}
50 км 8/4 600 м
[Cb cap Ac trans]
+15.4 +9.6 68 +15 +15 1008.7 1007.9
15 16.07 ЮВ 2-2
{2}
50 км 8/5 600 м
[Cb cap Ac trans]
+14.0 +8.4 69 +14 +14 1009.0 1008.2
18 16.07 ЮВ 2-2
{2}
50 км 9/6 600 м
[Cb cap Ac trans]
+13.5 +8.1 70 +13 +13 1009.3 1008.5
21 16.07 ЮВ 2-2
{2}
50 км 9/8 600 м
[Cb cap Ac trans]
+11.0 +8.1 82 +10 +10 1009.8 1009.0 +11.0
00 17.07 СЗ 2-2
{2}
50 км 4/0
[Ci sp]
+14.4 +9.3 71 +14 +25 опасность
простуды
1009.5 1008.7
03 17.07 ЮЗ 2-2
{2}
50 км 3/0
[Ci sp]
+18.0 +11.8 67 +19 +34 опасность
простуды
1009.0 1008.2
06 17.07 Ю 2-4
{4}
50 км 5/0
[Ac trans Ci sp]
+19.2 +11.4 61 +21 +28 комфорт 1007.8 1007.0
09 17.07 Ю 4-4
{6}
50 км 5/0
[Ac trans Ci sp]
+19.8 +12.7 64 +22 +22 комфорт 1007.5 1006.7 +20.4
12 17.07 Ю 4-4
{6}
50 км 5/0
[Ac trans Ci sp]
+16.8 +13.6 81 +16 +16 1008.1 1007.3
15 17.07 Ю 2-2
{4}
50 км 4/0
[Ci sp]
+14.0 +12.9 93 +13 +13 1007.8 1007.0
18 17.07 Ю 2-4
{6}
10 км 10/10 300 м
[St]
+13.6 +12.7 94 +13 +13 1007.8 1007.0
21 17.07 Ю 4-6
{6}
10 км 10/10 300 м
[St]
+14.2 +13.1 93 +13 +13 1008.5 1007.3 +13.4
00 18.07 Ю 8-10
{12}
50 км 5/3 300 м
[St Ac trans Ci sp]
+17.0 +13.5 80 +16 +17 1007.0 1006.2
03 18.07 Ю 8-10
{12}
50 км 3/1 1000 м
[Cu med, cong Ci sp]
+17.8 +12.4 71 +17 +19 1006.3 1005.5
06 18.07 Ю 8-10
{12}
50 км 3/0
[Ci sp]
+17.0 +11.7 71 +16 +17 1005.3 1004.5
09 18.07 Ю 8-10
{12}
50 км 3/0
[Ci sp]
+16.6 +11.0 69 +15 +15 1004.5 1003.7 +18.0
12 18.07 Ю 8-10
{12}
50 км 3/0
[Ac trans]
+15.2 +12.7 85 +13 +13 1004.3 1003.5
15 18.07 Ю 10-12
{14}
50 км 3/0
[Ac trans]
+15.8 +13.3 85 +14 +14 1004.3 1003.5
18 18.07 Ю 10-12
{14}
20 км 10/10 300 м
[St]
+15.3 +13.0 86 +13 +13 1004.2 1003.4
21 18.07 Ю 10-12
{14}
20 км 10/10 300 м
[St]
+15.5 +13.9 90 +13 +13 1004.6 1003.8 +15.0
00 19.07 Ю 10-10
{12}
50 км 10/10 600 м
[Cb cap]
+16.0 +14.2 89 +14 +14 1003.8 1003.0
03 19.07 Ю 10-12
{14}
50 км 9/6 600 м
[Cb cap Ac trans]
+17.2 +12.9 76 +16 +16 1003.0 1002.2
06 19.07 Ю 10-10
{12}
50 км 10/10 600 м
[Cb cap]
+17.0 +13.1 78 +15 +15 1002.1 1001.3
09 19.07 Ю 8-8
{10}
10 км слабый ливневой дождь 10/10 600 м
[Cb cap]
+15.6 +14.2 91 +14 +14 1001.8 1001.0 +17.6 1
12 19.07 Ю 6-6
{8}
10 км слабый ливневой дождь 10/10 600 м
[Cb cap]
+15.4 +14.7 96 +14 +14 1001.8 1001.0
15 19.07 Ю 2-2
{6}
20 км {ливн. осадки} 10/10 600 м
[Cb cap]
+15.0 +14.3 96 +15 +15 1001.8 1001.0
18 19.07 Ю 2-2
{4}
20 км {ливн. осадки} 10/10 600 м
[Cb cap]
+14.6 +13.0 90 +14 +14 1001.4 1000.6
21 19.07 Ю 2-2
{2}
10 км слабый ливневой дождь 10/10 600 м
[Cb cap]
+12.0 +11.6 97 +11 +11 999.5 998.7 +12.0 3
00 20.07 С 2-2
{2}
10 км слабый ливневой дождь 10/10 600 м
[Cb cap]
+12.2 +11.8 97 +11 +11 999.1 998.3
03 20.07 С 2-2
{2}
20 км слабый ливневой дождь 10/10 600 м
[Cb cap]
+13.8 +13.1 96 +13 +13 998.9 998.1
06 20.07 С 4-6
{6}
10 км слабый ливневой дождь 10/10 600 м
[Cb cap]
+13.4 +13.0 97 +12 +12 999.1 998.3
09 20.07 С 4-4
{6}
10 км слабый ливневой дождь 10/10 600 м
[Cb cap]
+13.2 +12.8 97 +11 +11 999.3 998.5 +14.0 3
12 20.07 С 2-2
{4}
50 км {ливн. осадки} 10/10 600 м
[Cb cap]
+13.6 +13.2 97 +13 +13 998.7 997.9
15 20.07 С 4-6
{6}
50 км 10/10 600 м
[Cb cap]
+13.2 +12.1 93 +11 +11 998.5 997.7
18 20.07 СЗ 6-8
{8}
50 км 10/10 600 м
[Cb cap]
+12.4 +11.1 92 +10 +10 998.2 997.4
21 20.07 -8
{8}
50 км н/о +12.6 +10.9 89 +10 +10 998.2 997.4 +12.2 0.9
00 21.07 СЗ 8-10
{12}
50 км 10/10 600 м
[Cb cap]
+13.8 +9.9 77 +11 +11 998.2 997.4
03 21.07 СЗ 10-12
{14}
10 км слабый ливневой дождь 10/10 600 м
[Cb cap]
+13.2 +11.7 91 +10 +10 998.6 997.8
06 21.07 СЗ 10-12
{14}
10 км слабый ливневой дождь 10/10 600 м
[Cb cap]
+12.5 +10.8 89 +9 +9 999.4 998.6
09 21.07 СЗ 14-16
{18}
10 км слабый ливневой дождь 10/10 600 м
[Cb cap]
+12.5 +11.9 96 +8 +8 1000.6 999.8 +13.9 4
12 21.07 СЗ 14-16
{18}
10 км слабый ливневой дождь 10/10 600 м
[Cb cap]
+12.4 +11.8 96 +8 +8 1001.9 1001.1
15 21.07 СЗ 14-16
{18}
10 км слабый ливневой дождь 10/10 600 м
[]
+12.2 +11.8 97 +8 +8 1003.3 1002.5
18 21.07 СЗ 14-16
{18}
10 км слабый ливневой дождь 10/10 600 м
[Cb cap]
+12.0 +11.6 97 +8 +8 1003.8 1003.0
21 21.07 СЗ 12-14
{16}
20 км {ливн. осадки} 10/10 600 м
[Cb cap]
+12.7 +11.8 94 +9 +9 1004.6 1003.8 +11.9 7
00 22.07 СЗ 12-14
{16}
50 км {ливн. осадки} 10/10 600 м
[Cb cap]
+13.0 +11.1 88 +9 +9 1005.0 1004.2
03 22.07 СЗ 8-10
{16}
50 км 9/6 600 м
[Cb cap Ac trans]
+14.0 +11.0 82 +11 +12 1005.8 1005.0
06 22.07 СЗ 6-8
{10}
50 км 8/4 600 м
[Cb cap Ac trans]
+15.1 +11.2 78 +13 +15 1005.9 1005.1
09 22.07 СЗ 4-6
{8}
50 км 4/0
[Ac trans Ci sp]
+15.5 +12.0 80 +15 +15 1005.4 1004.6 +16.0
12 22.07 С 2-4
{8}
50 км 5/0
[Ac trans Ci sp]
+13.0 +12.3 96 +12 +12 1005.3 1004.5
15 22.07 С 2-2
{4}
50 км 8/0
[Ac trans Ci sp]
+14.0 +12.9 93 +13 +13 1005.1 1004.3
18 22.07 С 2-2
{4}
50 км 8/4
[Cb cap Ac trans Ci sp]
+13.6 +12.5 93 +13 +13 995.1 1004.3
21 22.07 СЗ 2-2
{2}
50 км 8/0
[Ac trans Ci sp]
+14.2 +13.5 96 +14 +15 1004.3 1003.5 +12.8
00 23.07 СЗ 2-2
{4}
50 км 9/3 600 м
[Cb cap Ac trans]
+15.2 +13.0 87 +15 +19 1004.3 1003.5

 

Местоположение метеостанции Погиби (Сахалинская область, Россия): широта 52.22 долгота 141.60 высота над уровнем моря 6 м.

В архиве по умолчанию представлена погода в Погибях за последнюю неделю. Архивные данные за месяц целиком и за предыдущие месяцы, начиная с января 2011 года, Вы можете получить, выбрав интересующий диапазон дат из раскрывающегося списка и нажав кнопку "Ввод!".


*Определитесь, кто Вы:
робот инопланетянин человек

Внимание! Время в таблицах - всемирное. Для получения местного времени необходимо прибавить поправку, которая в Погибях равна 11 ч.

Смотрите также архив погоды в соседних городах и на ближайших метеорологических станциях:

Погода в Джаоре (Хабаровский край, Россия) (57 км)
Погода в Богородском (Хабаровский край, Россия) (84 км)
Погода в Вал (Сахалинская область, Россия) (96 км)
Погода в Ныше (Сахалинская область, Россия) (108 км)
Погода в Ногликах (Сахалинская область, Россия) (108 км)
Погода в Мариинском (Хабаровский край, Россия) (116 км)
Погода в Николаевск-на-Амуре (Хабаровский край, Россия) (120 км)
Погода в Байдукове (Хабаровский край, Россия) (121 км)
Погода в Александровск-Сахалинском (Сахалинская область, Россия) (151 км)
Погода в Москальво (Сахалинская область, Россия) (162 км)

Пояснения к столбцам:

Ветер - указаны скорость ветра в м/с - средняя за 10 мин, порывы в срок и между сроками (в фигурных скобках) и направление, откуда дует ветер: С - северный, СВ - северо-восточный, В - восточный, ЮВ - юго-восточный, Ю - южный, ЮЗ - юго-западный, З - западный, СЗ - северо-западный.
Видимость - горизонтальная дальность видимости в метрах или километрах. При видимости от 1 до 10 км при отсутствии осадков обычно наблюдается дымка, при ухудшении видимости до 1 км и менее - туман. В сухую погоду видимость может ухудшаться дымом, пылью или мглою.
Явления - указаны атмосферные явления, наблюдавшиеся в срок или в последний час перед сроком; фигурными скобками обозначены явления, наблюдавшиеся между сроками (за 1-3 часа до срока); квадратными скобками обозначены град или гололедные отложения с указанием их диаметра в мм.
Облачность - указаны через наклонную черту общая и нижняя облачность в баллах и высота нижней границы облаков в метрах; квадратными скобками обозначены формы облаков: Ci - перистые, Cs - перисто-слоистые, Cc - перисто-кучевые, Ac - высококучевые, As - высокослоистые, Sc - слоисто-кучевые, Ns - слоисто-дождевые, Cu - кучевые, Cb - кучево-дождевые. Подробнее классификацию облаков см. в Атласе облаков (PDF).
T - Температура воздуха - температура, измеренная на высоте 2 м над землей.
Td - Температура точки росы - температура, при понижении до которой содержащийся в воздухе водяной пар достигнет насыщения.
f - Относительная влажность воздуха - влажноcть воздуха, измеренная на высоте 2 м над землей.
Te - Эффективная температура - температура, которую ощущает одетый по сезону человек в тени. Характеристика душности погоды. При расчете учитывается влияние влажности воздуха и скорости ветра на теплоощущения человека.
Tes - Эффективная температура на солнце - температура, которую ощущает человек, с поправкой на солнечный нагрев. Характеристика знойности погоды. Зависит от высоты солнца над горизонтом, облачности и скорости ветра. Ночью, в пасмурную погоду, а также при ветре 12 м/с и более поправка равна нулю.
P - Атмосферное давление - приведенное к уровню моря атмосферное давление.
Po - Атмосферное давление - измеренное на уровне метеостанции атмосферное давление.
Tmin - Минимальная температура - минимум температуры воздуха на высоте 2 м над землей.
Tmax - Максимальная температура - максимум температуры воздуха на высоте 2 м над землей.
R - Количество осадков - Количество выпавших осадков за период времени, мм. При наведении курсора мыши на число - период времени, за который выпало указанное количество осадков.
R24 - Количество осадков - Количество выпавших осадков за 24 часа, мм.
S - Снежный покров - Высота снежного покрова, см. При наведении курсора мыши на число - состояние снежного покрова и степень покрытия местности в баллах.